| time (UTC) | temp F | wind direction | speed knots | gust knots | rain 1hr in | rain 24hr in | rain mn in | humidity % | barometer mb |
| 20260901191054 | 83 | 38 | 2.6 | 5.2 | 0.00 | 0.03 | 0.00 | 48 | 1022.9 |
| 20260901190551 | 82 | 103 | 1.7 | 4.3 | 0.00 | 0.03 | 0.00 | 50 | 1023.0 |
| 20260901185555 | 82 | 341 | 1.7 | 6.1 | 0.00 | 0.03 | 0.00 | 47 | 1023.1 |
| 20260901185051 | 82 | 333 | 2.6 | 7.0 | 0.00 | 0.03 | 0.00 | 47 | 1023.1 |
| 20260901184606 | 82 | 360 | 3.5 | 7.0 | 0.00 | 0.03 | 0.00 | 48 | 1023.1 |
| 20260901184055 | 82 | 23 | 0.9 | 4.3 | 0.00 | 0.03 | 0.00 | 49 | 1023.2 |
| 20260901183554 | 82 | 131 | 0.9 | 7.0 | 0.00 | 0.03 | 0.00 | 48 | 1023.2 |
| 20260901183105 | 81 | 94 | 3.5 | 7.0 | 0.00 | 0.03 | 0.00 | 49 | 1023.2 |
| 20260901182555 | 81 | 97 | 1.7 | 4.3 | 0.00 | 0.03 | 0.00 | 51 | 1023.4 |
| 20260901182055 | 81 | 124 | 1.7 | 4.3 | 0.00 | 0.03 | 0.00 | 51 | 1023.5 |
| 20260901181603 | 80 | 97 | 1.7 | 5.2 | 0.00 | 0.03 | 0.00 | 52 | 1023.6 |
| 20260901181052 | 80 | 57 | 2.6 | 5.2 | 0.00 | 0.03 | 0.00 | 52 | 1023.7 |
| 20260901180554 | 80 | 0 | 1.7 | 5.2 | 0.00 | 0.03 | 0.00 | 52 | 1023.7 |
| 20260901180105 | 80 | 58 | 0.9 | 5.2 | 0.00 | 0.03 | 0.00 | 51 | 1023.7 |
| 20260901175553 | 80 | 58 | 1.7 | 5.2 | 0.00 | 0.03 | 0.00 | 52 | 1023.7 |
| 20260901175053 | 80 | 0 | 2.6 | 4.3 | 0.00 | 0.03 | 0.00 | 52 | 1023.8 |
| 20260901174607 | 79 | 82 | 1.7 | 4.3 | 0.00 | 0.03 | 0.00 | 54 | 1023.8 |
| 20260901174051 | 79 | 74 | 2.6 | 5.2 | 0.00 | 0.03 | 0.00 | 54 | 1023.9 |
| 20260901173552 | 79 | 86 | 2.6 | 5.2 | 0.00 | 0.03 | 0.00 | 59 | 1024.0 |
| 20260901173058 | 78 | 24 | 2.6 | 5.2 | 0.00 | 0.03 | 0.00 | 61 | 1023.9 |
| 20260901172552 | 78 | 28 | 2.6 | 4.3 | 0.00 | 0.03 | 0.00 | 61 | 1024.0 |
| 20260901172054 | 77 | 42 | 0.9 | 4.3 | 0.00 | 0.03 | 0.00 | 64 | 1024.0 |
| 20260901171606 | 76 | 56 | 0.0 | 4.3 | 0.00 | 0.03 | 0.00 | 65 | 1024.1 |
| 20260901171052 | 75 | 68 | 0.9 | 4.3 | 0.00 | 0.03 | 0.00 | 66 | 1024.0 |
| 20260901170555 | 75 | 56 | 1.7 | 4.3 | 0.00 | 0.03 | 0.00 | 65 | 1023.9 |
| 20260901170105 | 75 | 49 | 2.6 | 4.3 | 0.00 | 0.03 | 0.00 | 64 | 1023.9 |
| 20260901165550 | 74 | 32 | 1.7 | 4.3 | 0.00 | 0.03 | 0.00 | 68 | 1024.0 |
| 20260901165055 | 74 | 41 | 2.6 | 4.3 | 0.00 | 0.03 | 0.00 | 69 | 1023.9 |
| 20260901164605 | 74 | 19 | 1.7 | 4.3 | 0.00 | 0.03 | 0.00 | 73 | 1024.0 |
| 20260901164054 | 73 | 23 | 0.0 | 3.5 | 0.00 | 0.03 | 0.00 | 74 | 1023.9 |
| 20260901163554 | 73 | 23 | 1.7 | 3.5 | 0.00 | 0.03 | 0.00 | 73 | 1023.8 |
| 20260901163105 | 73 | 0 | 0.0 | 3.5 | 0.00 | 0.03 | 0.00 | 75 | 1023.8 |
| 20260901162550 | 72 | 16 | 0.9 | 4.3 | 0.00 | 0.03 | 0.00 | 77 | 1023.8 |
| 20260901162052 | 72 | 19 | 1.7 | 5.2 | 0.00 | 0.03 | 0.00 | 78 | 1023.7 |
| 20260901161603 | 72 | 30 | 0.9 | 5.2 | 0.00 | 0.03 | 0.00 | 80 | 1023.6 |
| 20260901161050 | 71 | 46 | 0.9 | 5.2 | 0.00 | 0.03 | 0.00 | 81 | 1023.7 |
| 20260901160551 | 71 | 0 | 0.9 | 3.5 | 0.00 | 0.03 | 0.00 | 81 | 1023.8 |
| 20260901160118 | 70 | 53 | 1.7 | 3.5 | 0.00 | 0.03 | 0.00 | 82 | 1023.9 |
| 20260901155556 | 70 | 54 | 0.9 | 3.5 | 0.00 | 0.06 | 0.00 | 82 | 1023.8 |
| 20260901155054 | 70 | 48 | 0.0 | 3.5 | 0.00 | 0.06 | 0.00 | 83 | 1023.8 |
| 20260901154603 | 70 | 48 | 1.7 | 3.5 | 0.00 | 0.06 | 0.00 | 83 | 1023.8 |
| 20260901154054 | 70 | 51 | 0.9 | 3.5 | 0.00 | 0.06 | 0.00 | 84 | 1023.6 |
| 20260901153557 | 70 | 51 | 0.9 | 3.5 | 0.00 | 0.06 | 0.00 | 85 | 1023.5 |
| 20260901153120 | 70 | 52 | 0.9 | 4.3 | 0.00 | 0.06 | 0.00 | 86 | 1023.7 |
| 20260901152554 | 69 | 47 | 1.7 | 4.3 | 0.00 | 0.06 | 0.00 | 86 | 1023.5 |
| 20260901152055 | 69 | 47 | 1.7 | 4.3 | 0.00 | 0.06 | 0.00 | 89 | 1023.5 |
| 20260901151607 | 69 | 46 | 0.9 | 3.5 | 0.00 | 0.06 | 0.00 | 89 | 1023.5 |
| 20260901151054 | 68 | 46 | 0.9 | 4.3 | 0.00 | 0.06 | 0.00 | 90 | 1023.4 |
| 20260901150555 | 68 | 46 | 1.7 | 4.3 | 0.00 | 0.06 | 0.00 | 91 | 1023.4 |
| 20260901150126 | 67 | 44 | 0.9 | 2.6 | 0.00 | 0.06 | 0.00 | 92 | 1023.4 |
| 20260901145555 | 67 | 0 | 0.9 | 2.6 | 0.00 | 0.11 | 0.00 | 92 | 1023.4 |
| 20260901145056 | 66 | 44 | 0.0 | 2.6 | 0.00 | 0.11 | 0.00 | 92 | 1023.2 |
| 20260901144626 | 66 | 44 | 0.9 | 2.6 | 0.00 | 0.11 | 0.00 | 92 | 1023.2 |
| 20260901144055 | 66 | 44 | 0.9 | 2.6 | 0.00 | 0.11 | 0.00 | 92 | 1023.1 |
| 20260901143554 | 66 | 44 | 0.9 | 2.6 | 0.00 | 0.11 | 0.00 | 93 | 1023.0 |
| 20260901143110 | 66 | 44 | 0.9 | 2.6 | 0.00 | 0.11 | 0.00 | 93 | 1023.0 |
| 20260901142557 | 65 | 44 | 0.9 | 2.6 | 0.00 | 0.11 | 0.00 | 93 | 1023.1 |
| 20260901142054 | 65 | 44 | 0.9 | 2.6 | 0.00 | 0.11 | 0.00 | 93 | 1023.1 |
| 20260901141603 | 65 | 0 | 0.0 | 2.6 | 0.00 | 0.11 | 0.00 | 93 | 1023.0 |
| 20260901141054 | 65 | 0 | 0.0 | 2.6 | 0.00 | 0.11 | 0.00 | 92 | 1023.1 |
| 20260901140557 | 65 | 0 | 0.0 | 1.7 | 0.00 | 0.11 | 0.00 | 93 | 1023.1 |
| 20260901140111 | 65 | 44 | 0.0 | 1.7 | 0.00 | 0.11 | 0.00 | 93 | 1023.0 |
| 20260901135555 | 65 | 44 | 0.0 | 1.7 | 0.00 | 0.12 | 0.00 | 93 | 1022.9 |
| 20260901135056 | 65 | 0 | 0.0 | 1.7 | 0.00 | 0.12 | 0.00 | 93 | 1022.9 |
| 20260901134623 | 64 | 0 | 0.0 | 0.9 | 0.00 | 0.12 | 0.00 | 93 | 1022.9 |
| 20260901134053 | 64 | 0 | 0.0 | 0.0 | 0.00 | 0.12 | 0.00 | 93 | 1022.9 |
| 20260901133554 | 64 | 0 | 0.0 | 0.0 | 0.00 | 0.12 | 0.00 | 93 | 1022.8 |
| 20260901133110 | 64 | 0 | 0.0 | 0.9 | 0.00 | 0.12 | 0.00 | 92 | 1022.7 |
| 20260901132557 | 64 | 0 | 0.0 | 0.9 | 0.00 | 0.12 | 0.00 | 93 | 1022.8 |
| 20260901132055 | 64 | 0 | 0.0 | 0.9 | 0.00 | 0.12 | 0.00 | 93 | 1022.7 |
| 20260901131629 | 64 | 44 | 0.0 | 0.9 | 0.00 | 0.12 | 0.00 | 93 | 1022.5 |
| 20260901131053 | 64 | 0 | 0.0 | 0.9 | 0.00 | 0.12 | 0.00 | 92 | 1022.5 |
| 20260901130556 | 64 | 0 | 0.0 | 0.9 | 0.00 | 0.12 | 0.00 | 92 | 1022.5 |
| 20260901130128 | 64 | 44 | 0.0 | 0.9 | 0.00 | 0.12 | 0.00 | 93 | 1022.5 |
| 20260901125554 | 64 | 0 | 0.0 | 0.0 | 0.00 | 0.12 | 0.00 | 93 | 1022.5 |
| 20260901125056 | 63 | 0 | 0.0 | 1.7 | 0.00 | 0.12 | 0.00 | 92 | 1022.3 |
| 20260901124600 | 63 | 0 | 0.0 | 1.7 | 0.00 | 0.12 | 0.00 | 93 | 1022.3 |
| 20260901124057 | 63 | 0 | 0.0 | 0.0 | 0.00 | 0.12 | 0.00 | 92 | 1022.3 |
| 20260901123554 | 63 | 0 | 0.0 | 2.6 | 0.00 | 0.12 | 0.00 | 92 | 1022.1 |
| 20260901123101 | 63 | 0 | 0.0 | 2.6 | 0.00 | 0.12 | 0.00 | 93 | 1022.1 |
| 20260901122600 | 63 | 44 | 1.7 | 2.6 | 0.00 | 0.12 | 0.00 | 93 | 1022.1 |
| 20260901122053 | 62 | 44 | 1.7 | 2.6 | 0.00 | 0.12 | 0.00 | 93 | 1022.1 |
| 20260901121605 | 62 | 44 | 1.7 | 2.6 | 0.00 | 0.12 | 0.00 | 93 | 1022.0 |
| 20260901121054 | 62 | 44 | 0.0 | 3.5 | 0.00 | 0.12 | 0.00 | 93 | 1022.1 |
| 20260901120554 | 62 | 44 | 1.7 | 3.5 | 0.00 | 0.12 | 0.00 | 93 | 1021.9 |
| 20260901120111 | 62 | 44 | 0.0 | 0.9 | 0.00 | 0.12 | 0.00 | 93 | 1021.8 |
| 20260901115553 | 62 | 0 | 0.0 | 1.7 | 0.00 | 0.12 | 0.00 | 92 | 1021.9 |
| 20260901115056 | 62 | 0 | 0.0 | 1.7 | 0.00 | 0.12 | 0.00 | 92 | 1021.8 |
| 20260901114603 | 62 | 44 | 0.0 | 1.7 | 0.00 | 0.12 | 0.00 | 92 | 1021.8 |
| 20260901114053 | 62 | 0 | 0.0 | 0.9 | 0.00 | 0.12 | 0.00 | 92 | 1021.8 |
| 20260901113554 | 62 | 0 | 0.0 | 0.9 | 0.00 | 0.12 | 0.00 | 92 | 1021.8 |
| 20260901113106 | 62 | 0 | 0.0 | 1.7 | 0.00 | 0.12 | 0.00 | 92 | 1021.7 |
| 20260901112554 | 62 | 0 | 0.0 | 3.5 | 0.00 | 0.12 | 0.00 | 92 | 1021.7 |
| 20260901112056 | 62 | 44 | 0.9 | 3.5 | 0.00 | 0.12 | 0.00 | 92 | 1021.8 |
| 20260901111603 | 62 | 44 | 1.7 | 3.5 | 0.00 | 0.12 | 0.00 | 92 | 1021.9 |
| 20260901111054 | 62 | 44 | 0.0 | 1.7 | 0.00 | 0.12 | 0.00 | 92 | 1021.9 |
| 20260901110553 | 62 | 0 | 0.0 | 2.6 | 0.00 | 0.12 | 0.00 | 92 | 1021.8 |
| 20260901110100 | 62 | 44 | 0.9 | 2.6 | 0.00 | 0.12 | 0.00 | 92 | 1021.9 |
| 20260901105554 | 62 | 44 | 0.9 | 2.6 | 0.00 | 0.13 | 0.00 | 92 | 1021.9 |
| 20260901105058 | 62 | 0 | 0.0 | 1.7 | 0.00 | 0.13 | 0.00 | 92 | 1021.9 |
| 20260901104609 | 62 | 44 | 0.9 | 1.7 | 0.00 | 0.13 | 0.00 | 92 | 1021.9 |
| 20260901104055 | 63 | 0 | 0.0 | 1.7 | 0.00 | 0.13 | 0.00 | 92 | 1021.9 |
| 20260901103553 | 63 | 44 | 0.0 | 1.7 | 0.00 | 0.13 | 0.00 | 92 | 1022.0 |
| 20260901103102 | 63 | 0 | 0.0 | 0.0 | 0.00 | 0.13 | 0.00 | 92 | 1022.0 |
| 20260901102554 | 63 | 0 | 0.0 | 0.0 | 0.00 | 0.13 | 0.00 | 92 | 1022.0 |
| 20260901102054 | 63 | 0 | 0.0 | 0.9 | 0.00 | 0.13 | 0.00 | 92 | 1021.9 |
| 20260901101611 | 63 | 0 | 0.0 | 1.7 | 0.00 | 0.13 | 0.00 | 92 | 1022.0 |
| 20260901101054 | 63 | 0 | 0.0 | 1.7 | 0.00 | 0.13 | 0.00 | 92 | 1022.0 |
| 20260901100558 | 63 | 0 | 0.0 | 1.7 | 0.00 | 0.13 | 0.00 | 92 | 1022.0 |
| 20260901100105 | 63 | 44 | 0.0 | 1.7 | 0.00 | 0.13 | 0.00 | 92 | 1021.9 |
| 20260901095553 | 63 | 0 | 0.9 | 1.7 | 0.00 | 0.15 | 0.00 | 91 | 1022.0 |
| 20260901095053 | 63 | 44 | 0.0 | 0.9 | 0.00 | 0.15 | 0.00 | 92 | 1022.1 |
| 20260901094601 | 64 | 44 | 0.0 | 0.0 | 0.00 | 0.15 | 0.00 | 92 | 1022.0 |
| 20260901094054 | 64 | 0 | 0.0 | 0.0 | 0.00 | 0.15 | 0.00 | 92 | 1022.0 |
| 20260901093558 | 64 | 0 | 0.0 | 0.0 | 0.00 | 0.15 | 0.00 | 92 | 1022.0 |
| 20260901093108 | 64 | 0 | 0.0 | 0.0 | 0.00 | 0.15 | 0.00 | 92 | 1022.1 |
| 20260901092554 | 64 | 0 | 0.0 | 0.0 | 0.00 | 0.15 | 0.00 | 92 | 1022.2 |
| 20260901092056 | 64 | 0 | 0.0 | 0.0 | 0.00 | 0.15 | 0.00 | 92 | 1022.2 |
| 20260901091627 | 64 | 0 | 0.0 | 0.0 | 0.00 | 0.15 | 0.00 | 92 | 1022.1 |
| 20260901091053 | 65 | 0 | 0.0 | 0.0 | 0.00 | 0.15 | 0.00 | 92 | 1022.3 |
| 20260901090553 | 65 | 0 | 0.0 | 0.0 | 0.00 | 0.15 | 0.00 | 92 | 1022.1 |
| 20260901085553 | 65 | 0 | 0.0 | 0.0 | 0.00 | 0.21 | 0.00 | 92 | 1022.1 |
| 20260901085053 | 65 | 0 | 0.0 | 0.0 | 0.00 | 0.21 | 0.00 | 92 | 1022.1 |
| 20260901084557 | 65 | 0 | 0.0 | 1.7 | 0.00 | 0.21 | 0.00 | 91 | 1022.1 |
| 20260901084056 | 65 | 0 | 0.0 | 2.6 | 0.00 | 0.21 | 0.00 | 91 | 1022.1 |
| 20260901083555 | 65 | 44 | 0.0 | 2.6 | 0.00 | 0.21 | 0.00 | 92 | 1022.1 |
| 20260901083107 | 65 | 44 | 0.0 | 1.7 | 0.00 | 0.21 | 0.00 | 92 | 1022.1 |
| 20260901082553 | 65 | 44 | 0.0 | 1.7 | 0.00 | 0.21 | 0.00 | 92 | 1022.1 |
| 20260901082054 | 65 | 44 | 0.0 | 2.6 | 0.00 | 0.21 | 0.00 | 91 | 1022.1 |
| 20260901081602 | 65 | 0 | 0.9 | 2.6 | 0.00 | 0.21 | 0.00 | 91 | 1022.2 |
| 20260901081053 | 65 | 44 | 0.9 | 2.6 | 0.00 | 0.21 | 0.00 | 91 | 1022.2 |
| 20260901080553 | 65 | 44 | 0.0 | 0.9 | 0.00 | 0.21 | 0.00 | 91 | 1022.2 |
| 20260901080104 | 65 | 0 | 0.0 | 0.0 | 0.00 | 0.21 | 0.00 | 91 | 1022.2 |
| 20260901075555 | 65 | 0 | 0.0 | 0.0 | 0.00 | 0.21 | 0.00 | 91 | 1022.3 |
| 20260901075054 | 65 | 0 | 0.0 | 0.0 | 0.00 | 0.21 | 0.00 | 91 | 1022.3 |
| 20260901074622 | 66 | 0 | 0.0 | 1.7 | 0.00 | 0.21 | 0.00 | 91 | 1022.2 |
| 20260901074054 | 66 | 0 | 0.0 | 1.7 | 0.00 | 0.21 | 0.00 | 91 | 1022.3 |
| 20260901073556 | 66 | 0 | 0.0 | 0.0 | 0.00 | 0.21 | 0.00 | 91 | 1022.4 |
| 20260901073110 | 66 | 0 | 0.0 | 0.0 | 0.00 | 0.21 | 0.00 | 91 | 1022.3 |
| 20260901072554 | 66 | 0 | 0.0 | 0.0 | 0.00 | 0.21 | 0.00 | 91 | 1022.4 |
| 20260901072056 | 66 | 0 | 0.0 | 0.0 | 0.00 | 0.21 | 0.00 | 91 | 1022.4 |
| 20260901071601 | 66 | 0 | 0.0 | 0.0 | 0.00 | 0.21 | 0.00 | 91 | 1022.4 |
| 20260901071056 | 66 | 0 | 0.0 | 0.9 | 0.00 | 0.21 | 0.00 | 91 | 1022.4 |
| 20260901070555 | 66 | 0 | 0.0 | 0.9 | 0.00 | 0.21 | 0.00 | 91 | 1022.4 |
| 20260901070113 | 66 | 0 | 0.0 | 1.7 | 0.00 | 0.21 | 0.00 | 90 | 1022.4 |
| 20260901065556 | 66 | 0 | 0.0 | 1.7 | 0.00 | 0.21 | 0.21 | 90 | 1022.3 |
| 20260901065056 | 66 | 44 | 0.0 | 1.7 | 0.00 | 0.21 | 0.21 | 91 | 1022.2 |
| 20260901064603 | 66 | 44 | 0.9 | 2.6 | 0.00 | 0.21 | 0.21 | 90 | 1022.3 |
| 20260901064055 | 66 | 44 | 0.0 | 3.5 | 0.00 | 0.21 | 0.21 | 90 | 1022.4 |
| 20260901063555 | 66 | 44 | 1.7 | 6.1 | 0.00 | 0.21 | 0.21 | 90 | 1022.4 |
| 20260901063131 | 66 | 44 | 2.6 | 6.1 | 0.00 | 0.21 | 0.21 | 90 | 1022.5 |
| 20260901062555 | 66 | 60 | 0.9 | 5.2 | 0.00 | 0.21 | 0.21 | 89 | 1022.6 |
| 20260901062055 | 66 | 0 | 0.0 | 0.9 | 0.00 | 0.21 | 0.21 | 90 | 1022.5 |
| 20260901061601 | 66 | 0 | 0.0 | 0.9 | 0.00 | 0.21 | 0.21 | 89 | 1022.6 |
| 20260901061055 | 66 | 0 | 0.0 | 0.9 | 0.00 | 0.21 | 0.21 | 89 | 1022.5 |
| 20260901060600 | 66 | 0 | 0.0 | 1.7 | 0.00 | 0.21 | 0.21 | 89 | 1022.6 |
| 20260901060109 | 66 | 60 | 0.0 | 1.7 | 0.00 | 0.21 | 0.21 | 89 | 1022.8 |
| 20260901055556 | 67 | 0 | 0.0 | 1.7 | 0.00 | 0.21 | 0.21 | 89 | 1022.8 |
| 20260901055059 | 67 | 0 | 0.0 | 0.0 | 0.00 | 0.21 | 0.21 | 89 | 1022.9 |
| 20260901054603 | 67 | 0 | 0.0 | 0.0 | 0.00 | 0.21 | 0.21 | 89 | 1022.9 |
| 20260901054056 | 67 | 0 | 0.0 | 0.0 | 0.00 | 0.21 | 0.21 | 89 | 1022.9 |
| 20260901053553 | 67 | 0 | 0.0 | 0.0 | 0.00 | 0.21 | 0.21 | 88 | 1022.8 |
| 20260901053122 | 67 | 0 | 0.0 | 0.0 | 0.00 | 0.21 | 0.21 | 88 | 1022.9 |
| 20260901052555 | 68 | 0 | 0.0 | 0.0 | 0.00 | 0.21 | 0.21 | 88 | 1022.9 |
| 20260901052054 | 68 | 0 | 0.0 | 0.0 | 0.00 | 0.21 | 0.21 | 88 | 1022.8 |
| 20260901051616 | 68 | 0 | 0.0 | 0.0 | 0.00 | 0.21 | 0.21 | 87 | 1022.8 |
| 20260901051054 | 68 | 0 | 0.0 | 0.9 | 0.00 | 0.21 | 0.21 | 87 | 1022.8 |
| 20260901050554 | 68 | 0 | 0.0 | 0.9 | 0.00 | 0.21 | 0.21 | 87 | 1022.8 |
| 20260901050104 | 68 | 0 | 0.0 | 0.9 | 0.00 | 0.21 | 0.21 | 87 | 1022.9 |
| 20260901045558 | 69 | 0 | 0.0 | 1.7 | 0.00 | 0.21 | 0.21 | 87 | 1022.9 |
| 20260901045055 | 68 | 0 | 0.0 | 3.5 | 0.00 | 0.21 | 0.21 | 86 | 1022.9 |
| 20260901044602 | 68 | 60 | 0.9 | 3.5 | 0.00 | 0.21 | 0.21 | 86 | 1023.0 |
| 20260901044054 | 68 | 60 | 0.0 | 2.6 | 0.00 | 0.21 | 0.21 | 86 | 1023.1 |
| 20260901043556 | 68 | 0 | 0.0 | 3.5 | 0.00 | 0.21 | 0.21 | 85 | 1023.1 |
| 20260901043106 | 68 | 60 | 0.9 | 5.2 | 0.00 | 0.21 | 0.21 | 85 | 1023.1 |
| 20260901042557 | 68 | 59 | 2.6 | 5.2 | 0.00 | 0.21 | 0.21 | 84 | 1022.9 |
| 20260901042057 | 69 | 65 | 2.6 | 4.3 | 0.00 | 0.21 | 0.21 | 84 | 1022.9 |
| 20260901041611 | 69 | 85 | 0.9 | 2.6 | 0.00 | 0.21 | 0.21 | 83 | 1022.9 |
| 20260901041056 | 69 | 0 | 0.0 | 2.6 | 0.00 | 0.21 | 0.21 | 82 | 1022.9 |
| 20260901040554 | 69 | 120 | 0.0 | 0.9 | 0.00 | 0.21 | 0.21 | 82 | 1022.8 |
| 20260901040106 | 69 | 0 | 0.0 | 2.6 | 0.00 | 0.21 | 0.21 | 81 | 1022.7 |
| 20260901035556 | 69 | 0 | 0.0 | 6.1 | 0.00 | 0.21 | 0.21 | 81 | 1022.3 |
| 20260901035056 | 69 | 120 | 1.7 | 6.1 | 0.00 | 0.21 | 0.21 | 82 | 1022.2 |
| 20260901034602 | 69 | 106 | 2.6 | 6.1 | 0.00 | 0.21 | 0.21 | 82 | 1022.0 |
| 20260901034053 | 69 | 0 | 1.7 | 5.2 | 0.00 | 0.21 | 0.21 | 83 | 1022.0 |
| 20260901033553 | 69 | 174 | 1.7 | 2.6 | 0.00 | 0.21 | 0.21 | 84 | 1022.0 |
| 20260901033101 | 69 | 181 | 0.9 | 2.6 | 0.00 | 0.21 | 0.21 | 83 | 1021.9 |
| 20260901032557 | 69 | 181 | 1.7 | 2.6 | 0.00 | 0.21 | 0.21 | 83 | 1022.0 |
| 20260901032055 | 69 | 181 | 1.7 | 2.6 | 0.00 | 0.21 | 0.21 | 82 | 1022.1 |
| 20260901031615 | 69 | 181 | 0.9 | 2.6 | 0.00 | 0.21 | 0.21 | 83 | 1022.0 |
| 20260901031055 | 69 | 181 | 0.9 | 3.5 | 0.00 | 0.21 | 0.21 | 83 | 1021.9 |
| 20260901030553 | 69 | 181 | 1.7 | 5.2 | 0.00 | 0.21 | 0.21 | 83 | 1021.9 |
| 20260901030105 | 69 | 181 | 1.7 | 5.2 | 0.00 | 0.21 | 0.21 | 83 | 1021.9 |
| 20260901025555 | 69 | 181 | 0.0 | 3.5 | 0.00 | 0.21 | 0.21 | 83 | 1021.9 |
| 20260901025056 | 69 | 0 | 0.0 | 3.5 | 0.00 | 0.21 | 0.21 | 83 | 1021.8 |
| 20260901024600 | 69 | 181 | 1.7 | 5.2 | 0.00 | 0.21 | 0.21 | 84 | 1021.7 |
| 20260901024055 | 69 | 182 | 0.9 | 5.2 | 0.00 | 0.21 | 0.21 | 84 | 1021.6 |
| 20260901023554 | 69 | 188 | 2.6 | 4.3 | 0.00 | 0.21 | 0.21 | 84 | 1021.6 |
| 20260901023105 | 70 | 249 | 0.9 | 2.6 | 0.00 | 0.21 | 0.21 | 85 | 1021.5 |
| 20260901022554 | 70 | 0 | 0.0 | 0.9 | 0.00 | 0.21 | 0.21 | 85 | 1021.3 |
| 20260901022056 | 70 | 0 | 0.0 | 0.9 | 0.00 | 0.21 | 0.21 | 84 | 1021.1 |
| 20260901021602 | 70 | 0 | 0.0 | 0.0 | 0.00 | 0.21 | 0.21 | 84 | 1021.1 |
| 20260901021055 | 70 | 0 | 0.0 | 0.0 | 0.00 | 0.21 | 0.21 | 83 | 1021.0 |
| 20260901020552 | 70 | 0 | 0.0 | 0.9 | 0.00 | 0.21 | 0.21 | 83 | 1021.0 |
| 20260901020104 | 70 | 0 | 0.0 | 0.9 | 0.00 | 0.21 | 0.21 | 82 | 1020.9 |
| 20260901015554 | 70 | 0 | 0.0 | 0.9 | 0.00 | 0.21 | 0.21 | 82 | 1020.7 |
| 20260901015053 | 70 | 0 | 0.0 | 0.9 | 0.00 | 0.21 | 0.21 | 81 | 1020.7 |
| 20260901014602 | 70 | 249 | 0.0 | 0.9 | 0.00 | 0.21 | 0.21 | 81 | 1020.5 |
| 20260901014055 | 70 | 0 | 0.0 | 0.9 | 0.00 | 0.21 | 0.21 | 80 | 1020.5 |
| 20260901013555 | 70 | 0 | 0.0 | 0.0 | 0.00 | 0.21 | 0.21 | 80 | 1020.4 |
| 20260901013101 | 69 | 0 | 0.0 | 0.0 | 0.00 | 0.21 | 0.21 | 79 | 1020.4 |
| 20260901012554 | 69 | 0 | 0.0 | 0.0 | 0.00 | 0.21 | 0.21 | 79 | 1020.4 |
| 20260901012055 | 70 | 0 | 0.0 | 0.0 | 0.00 | 0.21 | 0.21 | 80 | 1020.2 |
| 20260901011602 | 70 | 0 | 0.0 | 0.9 | 0.00 | 0.21 | 0.21 | 80 | 1020.3 |
| 20260901011054 | 70 | 0 | 0.0 | 0.9 | 0.00 | 0.21 | 0.21 | 79 | 1020.4 |
| 20260901010559 | 70 | 0 | 0.0 | 0.9 | 0.00 | 0.21 | 0.21 | 78 | 1020.5 |
| 20260901010101 | 70 | 0 | 0.0 | 0.0 | 0.00 | 0.21 | 0.21 | 78 | 1020.4 |
| 20260901005555 | 70 | 0 | 0.0 | 0.0 | 0.00 | 0.21 | 0.21 | 78 | 1020.3 |
| 20260901005055 | 70 | 0 | 0.0 | 0.0 | 0.00 | 0.21 | 0.21 | 77 | 1020.3 |
| 20260901004609 | 70 | 0 | 0.0 | 0.0 | 0.00 | 0.21 | 0.21 | 77 | 1020.3 |
| 20260901004051 | 69 | 0 | 0.0 | 0.0 | 0.00 | 0.21 | 0.21 | 76 | 1020.2 |
| 20260901003552 | 69 | 0 | 0.0 | 0.0 | 0.00 | 0.21 | 0.21 | 74 | 1020.2 |
| 20260901003101 | 69 | 0 | 0.0 | 0.0 | 0.00 | 0.21 | 0.21 | 76 | 1020.2 |
| 20260901002556 | 69 | 0 | 0.0 | 0.0 | 0.00 | 0.21 | 0.21 | 78 | 1020.0 |
| 20260901002054 | 69 | 0 | 0.0 | 0.0 | 0.00 | 0.21 | 0.21 | 78 | 1020.0 |
| 20260901001608 | 69 | 0 | 0.0 | 0.0 | 0.00 | 0.21 | 0.21 | 78 | 1020.0 |
| 20260901001052 | 69 | 0 | 0.0 | 0.0 | 0.00 | 0.21 | 0.21 | 79 | 1020.1 |
| 20260901000552 | 69 | 0 | 0.0 | 0.0 | 0.00 | 0.21 | 0.21 | 80 | 1020.1 |
| 20260901000111 | 69 | 0 | 0.0 | 0.9 | 0.00 | 0.21 | 0.21 | 82 | 1020.2 |
| 20260831235557 | 69 | 0 | 0.0 | 0.9 | 0.01 | 0.21 | 0.21 | 83 | 1020.3 |
| 20260831235055 | 69 | 0 | 0.0 | 0.9 | 0.01 | 0.21 | 0.21 | 84 | 1020.5 |
| 20260831234628 | 68 | 0 | 0.0 | 0.0 | 0.01 | 0.21 | 0.21 | 84 | 1020.5 |
| 20260831234052 | 68 | 0 | 0.0 | 0.0 | 0.01 | 0.21 | 0.21 | 85 | 1020.7 |
| 20260831233556 | 68 | 0 | 0.0 | 0.9 | 0.01 | 0.21 | 0.21 | 85 | 1020.7 |
| 20260831233120 | 68 | 0 | 0.0 | 2.6 | 0.01 | 0.21 | 0.21 | 86 | 1020.9 |
| 20260831232553 | 68 | 0 | 0.0 | 3.5 | 0.02 | 0.21 | 0.21 | 85 | 1020.9 |
| 20260831232054 | 68 | 0 | 0.0 | 3.5 | 0.02 | 0.21 | 0.21 | 85 | 1020.8 |
| 20260831231556 | 68 | 293 | 0.0 | 2.6 | 0.03 | 0.21 | 0.21 | 86 | 1020.9 |
| 20260831231052 | 68 | 0 | 0.0 | 1.7 | 0.03 | 0.21 | 0.21 | 85 | 1020.8 |
| 20260831230556 | 67 | 0 | 0.0 | 0.9 | 0.03 | 0.21 | 0.21 | 85 | 1020.7 |
| 20260831230107 | 67 | 0 | 0.0 | 3.5 | 0.03 | 0.21 | 0.21 | 83 | 1020.7 |
| 20260831225552 | 67 | 0 | 0.0 | 5.2 | 0.02 | 0.20 | 0.20 | 83 | 1020.6 |
| 20260831225051 | 67 | 307 | 0.0 | 5.2 | 0.02 | 0.20 | 0.20 | 83 | 1020.9 |
| 20260831224604 | 67 | 293 | 2.6 | 5.2 | 0.02 | 0.20 | 0.20 | 82 | 1021.1 |
| 20260831224058 | 67 | 307 | 2.6 | 7.0 | 0.02 | 0.20 | 0.20 | 80 | 1021.2 |
| 20260831223555 | 68 | 299 | 2.6 | 7.0 | 0.02 | 0.20 | 0.20 | 80 | 1021.4 |
| 20260831223108 | 68 | 293 | 4.3 | 9.6 | 0.02 | 0.20 | 0.20 | 78 | 1021.7 |
| 20260831222552 | 68 | 311 | 5.2 | 10.4 | 0.01 | 0.19 | 0.19 | 76 | 1021.9 |
| 20260831222054 | 69 | 302 | 6.1 | 13.0 | 0.01 | 0.19 | 0.19 | 73 | 1022.2 |
| 20260831221603 | 70 | 294 | 7.8 | 13.9 | 0.00 | 0.18 | 0.18 | 70 | 1022.4 |
| 20260831221053 | 70 | 281 | 8.7 | 17.4 | 0.00 | 0.18 | 0.18 | 68 | 1022.4 |
| 20260831220558 | 71 | 297 | 9.6 | 17.4 | 0.00 | 0.18 | 0.18 | 66 | 1022.5 |
| 20260831215554 | 71 | 311 | 9.6 | 17.4 | 0.00 | 0.18 | 0.18 | 65 | 1022.6 |
| 20260831215053 | 71 | 336 | 10.4 | 19.1 | 0.00 | 0.18 | 0.18 | 65 | 1022.7 |
| 20260831214608 | 71 | 274 | 13.0 | 20.9 | 0.00 | 0.18 | 0.18 | 64 | 1022.8 |
| 20260831214055 | 72 | 307 | 12.2 | 20.9 | 0.00 | 0.18 | 0.18 | 65 | 1022.9 |
| 20260831213558 | 72 | 258 | 11.3 | 20.9 | 0.00 | 0.18 | 0.18 | 65 | 1022.9 |
| 20260831213104 | 73 | 290 | 12.2 | 20.9 | 0.00 | 0.18 | 0.18 | 67 | 1022.9 |
| 20260831212553 | 73 | 318 | 10.4 | 20.0 | 0.00 | 0.18 | 0.18 | 66 | 1023.0 |
| 20260831212057 | 73 | 318 | 11.3 | 20.0 | 0.00 | 0.18 | 0.18 | 66 | 1023.1 |
| 20260831211606 | 73 | 274 | 13.9 | 20.0 | 0.00 | 0.18 | 0.18 | 66 | 1023.0 |
| 20260831211052 | 74 | 339 | 12.2 | 20.0 | 0.00 | 0.18 | 0.18 | 66 | 1023.2 |
| 20260831210554 | 74 | 294 | 9.6 | 20.0 | 0.00 | 0.18 | 0.18 | 68 | 1023.2 |
| 20260831210058 | 74 | 271 | 11.3 | 18.2 | 0.00 | 0.18 | 0.18 | 68 | 1023.1 |
| 20260831205556 | 74 | 290 | 10.4 | 15.6 | 0.00 | 0.18 | 0.18 | 67 | 1023.1 |
| 20260831205058 | 74 | 287 | 9.6 | 15.6 | 0.00 | 0.18 | 0.18 | 66 | 1023.1 |
| 20260831204629 | 74 | 281 | 7.0 | 14.8 | 0.00 | 0.18 | 0.18 | 68 | 1023.2 |
| 20260831204053 | 74 | 321 | 7.0 | 14.8 | 0.00 | 0.18 | 0.18 | 69 | 1023.1 |
| 20260831203555 | 75 | 245 | 6.1 | 14.8 | 0.00 | 0.18 | 0.18 | 69 | 1023.3 |
| 20260831203121 | 76 | 278 | 7.8 | 14.8 | 0.00 | 0.18 | 0.18 | 68 | 1023.4 |
| 20260831202554 | 77 | 288 | 6.1 | 11.3 | 0.00 | 0.18 | 0.18 | 64 | 1023.4 |
| 20260831202055 | 77 | 285 | 6.1 | 11.3 | 0.00 | 0.18 | 0.18 | 62 | 1023.4 |
| 20260831201604 | 77 | 283 | 5.2 | 10.4 | 0.00 | 0.18 | 0.18 | 62 | 1023.4 |
| 20260831201055 | 77 | 1 | 2.6 | 7.8 | 0.00 | 0.18 | 0.18 | 64 | 1023.1 |
| 20260831200556 | 76 | 316 | 3.5 | 7.8 | 0.00 | 0.18 | 0.18 | 65 | 1023.2 |
| 20260831200104 | 76 | 278 | 3.5 | 7.0 | 0.00 | 0.18 | 0.18 | 64 | 1023.2 |
| 20260831195555 | 76 | 351 | 2.6 | 5.2 | 0.00 | 0.18 | 0.18 | 66 | 1023.2 |
| 20260831195054 | 75 | 358 | 2.6 | 5.2 | 0.00 | 0.18 | 0.18 | 66 | 1023.2 |
| 20260831194606 | 75 | 331 | 1.7 | 6.1 | 0.00 | 0.18 | 0.18 | 66 | 1023.5 |
| 20260831194055 | 74 | 333 | 2.6 | 6.1 | 0.00 | 0.18 | 0.18 | 68 | 1023.6 |
| 20260831193555 | 74 | 304 | 3.5 | 6.1 | 0.00 | 0.18 | 0.18 | 69 | 1023.7 |
| 20260831193101 | 74 | 308 | 1.7 | 5.2 | 0.00 | 0.18 | 0.18 | 69 | 1023.7 |
| 20260831192554 | 75 | 328 | 0.9 | 4.3 | 0.00 | 0.18 | 0.18 | 69 | 1023.8 |
| 20260831192055 | 74 | 305 | 1.7 | 6.1 | 0.00 | 0.18 | 0.18 | 68 | 1023.7 |
| 20260831191600 | 75 | 340 | 1.7 | 9.6 | 0.00 | 0.18 | 0.18 | 69 | 1023.6 |